Location: Caltech
(34.1382°N, 118.1253°W)
Time: 02:35:09
(UTC-07:00)

Iridium 62 - Visible Passes

Search period start: 22 June 2018 00:00
Search period end: 02 July 2018 00:00
Orbit: 761 x 764 km, 86.4° (Epoch: 21 June)

Date Brightness Start Highest point End Pass type
(mag) Time Alt. Az. Time Alt. Az. Time Alt. Az.
22 Jun 8.0 00:26:18 10° NW 00:29:14 16° WNW 00:29:14 16° WNW visible
22 Jun 7.3 22:07:35 10° NNE 22:11:25 21° E 22:11:28 21° E visible
22 Jun 7.0 23:47:14 10° NNW 23:51:38 34° W 23:51:38 34° W visible
23 Jun 5.8 23:09:02 10° N 23:14:02 76° WNW 23:14:02 76° WNW visible
24 Jun 6.1 22:31:21 10° N 22:36:20 49° E 22:36:26 49° E visible
25 Jun 8.0 00:13:27 10° NW 00:16:14 15° W 00:16:37 15° W visible
25 Jun 7.1 21:54:19 10° NNE 21:58:21 23° E 21:58:51 22° E visible
25 Jun 7.1 23:34:12 10° NNW 23:38:43 32° W 23:39:02 31° W visible
26 Jun 7.9 21:19:38 10° ENE 21:20:10 10° ENE 21:20:42 10° E visible
26 Jun 5.8 22:55:56 10° N 23:01:03 70° W 23:01:27 66° WSW visible
27 Jun 5.9 22:18:12 10° N 22:23:14 53° E 22:23:53 50° ESE visible
28 Jun 8.2 00:00:38 10° NW 00:03:05 13° W 00:04:04 13° W visible
28 Jun 7.0 21:41:04 10° NNE 21:45:16 25° E 21:46:20 23° E visible
28 Jun 7.2 23:21:12 10° NNW 23:25:35 29° W 23:26:31 27° WSW visible
29 Jun 7.8 21:05:32 10° ENE 21:07:07 11° ENE 21:08:41 10° E visible
29 Jun 6.0 22:42:51 10° N 22:47:56 64° W 22:48:58 51° SW visible
30 Jun 5.9 22:05:03 10° N 22:10:08 59° E 22:11:27 44° SE visible
30 Jun 8.3 23:47:55 10° NW 23:49:55 12° W 23:51:37 11° W visible
01 Jul 6.9 21:27:50 10° NNE 21:32:10 27° E 21:33:56 22° ESE visible
01 Jul 7.4 23:08:11 10° NNW 23:12:26 27° W 23:14:06 22° WSW visible
